"Pseudo-MPEC" for P21XkqJ

Created 2024 Aug 17 1:22:05 UT using Find_Orb

Click here for an explanation of pseudo-MPECs

 
 Astrometry: 
     P21XkqJ  C2024 08 14.58642101 21 58.318+05 40 21.01   ~8ELq       VNEOCPF52
     P21XkqJ  C2024 08 14.59554401 22 00.381+05 39 25.35   ~8ELq 21.01GVNEOCPF52
     P21XkqJ* C2024 08 14.60646101 22 02.884+05 38 17.64   ~8EGM 20.99wXNEOCPF52
     P21XkqJ  C2024 08 14.61585201 22 05.040+05 37 19.65   ~8EGM 20.17wXNEOCPF52
     P21XkqJ KB2024 08 15.02832801 23 45.70 +04 54 21.1    ~8F1bx19.6 GXNEOCP958
     P21XkqJ KC2024 08 15.03010501 23 45.835+04 54 07.74   ~8F1M 19.7 GVNEOCPJ95
     P21XkqJ KC2024 08 15.03419001 23 46.798+04 53 42.25   ~8F1M 20.1 GVNEOCPJ95
     P21XkqJ KB2024 08 15.03774301 23 47.86 +04 53 21.3    ~8F1bx19.3 GXNEOCP958
     P21XkqJ KC2024 08 15.04621601 23 49.596+04 52 27.16   ~8F1Mx19.9 GVNEOCPJ95
     P21XkqJ KB2024 08 15.04716501 23 49.99 +04 52 23.0    ~8F1b 19.3 GXNEOCP958
     P21XkqJ 1C2024 08 15.51062701 25 42.185+04 03 36.89   ~8FN7 20.05GVNEOCPT12
     P21XkqJ 1C2024 08 15.51241701 25 42.608+04 03 25.35   ~8FN7 20.20GVNEOCPT12
     P21XkqJ KB2024 08 15.93420 01 27 25.31 +03 17 57.1    ~8G0M       VNEOCPM75
     P21XkqJ KB2024 08 15.94866 01 27 28.78 +03 16 22.2    ~8G0M 20.3 GVNEOCPM75
     P21XkqJ KB2024 08 15.96257 01 27 32.03 +03 14 50.2    ~8G0M 19.7 GVNEOCPM75
     P21XkqJ pC2024 08 15.97314201 27 35.08 +03 13 42.2    ~8G07 19.7 GVNEOCPL01
     P21XkqJ pC2024 08 15.97537801 27 35.61 +03 13 27.7    ~8G07 19.9 GVNEOCPL01
     P21XkqJ pC2024 08 15.97761501 27 36.11 +03 13 12.5    ~8G07 19.7 GVNEOCPL01
     P21XkqJ pC2024 08 15.98022101 27 36.69 +03 12 56.5    ~8G07 20.0 GVNEOCPL01
     P21XkqJ IC2024 08 16.09623901 28 04.23 +03 00 21.1    ~8G3M 18.8 GXNEOCP595
     P21XkqJ KC2024 08 16.10530401 28 06.41 +02 59 21.4    ~8G3M 19.3 GXNEOCP595
     P21XkqJ KC2024 08 16.11437001 28 08.52 +02 58 21.7    ~8G3M 19.9 GXNEOCP595
     P21XkqJ 0B2024 08 16.15975601 28 19.108+02 53 56.31   ~8G57 20.4 VZNEOCPM49
     P21XkqJ 0B2024 08 16.17019601 28 21.581+02 52 47.66   ~8G57 20.1 VZNEOCPM49

Station data:
(595) Farra d'Isonzo  (N45.915731 E13.525780)  Italy.  Observers S. Aschi, E.
   Pettarin, G. Panterotto. Measurers S. Aschi, E. Pettarin. 0.40-m f/5.15
   reflector + CCD.
(958) Observatoire de Dax  (N43.693381 W1.030530)  France.  Observer P.
   Dupouy. 0.32-m Schmidt-Cassegrain.
(F52) Pan-STARRS 2, Haleakala  (N20.707382 W156.255910)  US/Hawaii.
   Observers J. Bulger, T. Dukes, T. Lowe, A. Schultz, M. Willman. Measurers
   K. Chambers, S. Chastel, T. de Boer, L. Denneau, J. Fairlamb, H.
   Flewelling, M. Huber, C.-C. Lin, E. Magnier, Y. Ramanjooloo, R. Wainscoat,
   R. Weryk. 1.8-m Ritchey-Chrétien + CCD.
(J95) Great Shefford  (N51.474969 W1.447003)  UK/England.  Observer P.
   Birtwhistle. 0.41-m f/6.3 Schmidt-Cassegrain + CCD.
(L01) Višnjan Observatory, Tičan  (N45.290897 E13.749300)  Croatia.
   Observers K. Korlević, D. Pujagic, V. Dobos. Measurers D. Pujagic, K.
   Korlević. 1.0-m f/2.9 reflector + CCD.
(M49) IAS Remote Observatory, Hakos  (S23.236549 E16.361720)  Namibia.
   Observers D. Husar, M. Junius. Measurer D. Husar. 0.25-m f/4.6 reflector +
   CCD.
(M75) Online observatory, Peschany  (N45.742938 E39.511550)  Russia.
(T12) Mauna Kea-UH/Tholen NEO Follow-Up (2.24-m)  (N19.822991 W155.469434)
   US/Hawaii.  Observer R. Weryk. 2.24-m f/10.1 University of Hawaii
   reflector.

Orbital elements:  P21XkqJ
   Perihelion 2024 Sep 23.30999 +/- 0.915 TT =  7:26:23 (JD 2460576.80999)
Epoch 2024 Aug 16.0 TT = JDT 2460538.5   Earth MOID: 0.1982   Ma: 0.0661
M 339.20209200 +/- 0.8              (J2000 ecliptic)             AutoNEOCP
n   0.54288466 +/- 0.00891          Peri.  214.36522 +/- 0.7
a   1.48821038 +/- 0.0163           Node   154.15970 +/- 0.09
e   0.2110758 +/- 0.00711           Incl.   39.00396 +/- 0.28
P   1.816/663.112d         H 20.54  G  0.15   U  9.6
q 1.17408508 +/- 0.00229    Q 1.80233568 +/- 0.0304
21 of 24 observations 2024 Aug. 14-16 (38.0 hr); mean residual 0".48
Residuals in arcseconds: 
240814 F52  .41+  .26-    240815 J95( 1.0-  .35+)   240815 L01  .61+  .42-    
240814 F52  .01-  .35+    240815 958  .23-  .57-    240815 L01  .09+  1.1-    
240814 F52  .00   .01+    240815 T12  .04+  .07+    240815 L01  .56-  .13-    
240814 F52  .04+  .00     240815 T12  .12+  .03-    240816 595  .62-  .84+    
240815 958( 1.9+  .59-)   240815 M75  .36-  1.3+    240816 595  .08-  .38+    
240815 J95  .36-  .11-    240815 M75  .12+  .28+    240816 595  .58-  .05-    
240815 J95  .40-  .01+    240815 M75  .65-  1.3-    240816 M49  .05-  .10+    
240815 958( 1.1+  1.4-)   240815 L01  .69+  .45-    240816 M49  .32+  .13-    

Ephemerides (geocentric):
Date (UTC) HH   RA             Dec           delta  r     elong  mag " sig PA
---- --------  ------------   ------------  ------ ------ -----  --- --------
2024 08 17 01  01 31 56.701   +01 15 57.39  .30711 1.2045 122.2 20.1 .370  22
2024 08 17 02  01 32 07.016   +01 11 15.79  .30692 1.2044 122.2 20.1 .390  20
2024 08 17 03  01 32 17.337   +01 06 33.80  .30672 1.2044 122.3 20.1 .411  19
2024 08 17 04  01 32 27.663   +01 01 51.41  .30653 1.2043 122.3 20.1 .433  18
2024 08 17 05  01 32 37.994   +00 57 08.64  .30633 1.2042 122.3 20.1 .455  17
2024 08 17 06  01 32 48.331   +00 52 25.48  .30614 1.2042 122.3 20.1 .478  17
2024 08 17 07  01 32 58.672   +00 47 41.92  .30595 1.2041 122.3 20.1 .501  16
2024 08 17 08  01 33 09.019   +00 42 57.98  .30576 1.2041 122.4 20.1 .525  15
2024 08 17 09  01 33 19.372   +00 38 13.65  .30557 1.2040 122.4 20.1 .549  14
2024 08 17 10  01 33 29.729   +00 33 28.94  .30538 1.2039 122.4 20.1 .575  14
2024 08 17 11  01 33 40.092   +00 28 43.84  .30519 1.2039 122.4 20.1 .600  13
2024 08 17 12  01 33 50.460   +00 23 58.35  .30500 1.2038 122.4 20.1 .627  12
2024 08 17 13  01 34 00.833   +00 19 12.48  .30482 1.2037 122.5 20.1 .653  12
2024 08 17 14  01 34 11.211   +00 14 26.23  .30463 1.2037 122.5 20.1 .681  11
2024 08 17 15  01 34 21.595   +00 09 39.60  .30444 1.2036 122.5 20.1 .709  11
2024 08 17 16  01 34 31.984   +00 04 52.59  .30426 1.2035 122.5 20.1 .738  10
2024 08 17 17  01 34 42.378   +00 00 05.21  .30408 1.2035 122.5 20.1 .767  10
2024 08 17 18  01 34 52.777   -00 04 42.56  .30389 1.2034 122.6 20.1 .797   9
2024 08 17 19  01 35 03.182   -00 09 30.70  .30371 1.2033 122.6 20.1 .827   9
2024 08 17 20  01 35 13.592   -00 14 19.22  .30353 1.2033 122.6 20.1 .858   9
2024 08 17 21  01 35 24.007   -00 19 08.12  .30335 1.2032 122.6 20.1 .890   8
2024 08 17 22  01 35 34.427   -00 23 57.38  .30317 1.2031 122.6 20.1 .922   8
2024 08 17 23  01 35 44.852   -00 28 47.02  .30299 1.2031 122.7 20.1 .954   7
2024 08 18 00  01 35 55.283   -00 33 37.03  .30281 1.2030 122.7 20.1 .988   7
2024 08 18 01  01 36 05.719   -00 38 27.41  .30263 1.2029 122.7 20.1 1.02   7
2024 08 18 02  01 36 16.160   -00 43 18.16  .30246 1.2029 122.7 20.1 1.06   6
2024 08 18 03  01 36 26.606   -00 48 09.27  .30228 1.2028 122.7 20.1 1.09   6
2024 08 18 04  01 36 37.057   -00 53 00.75  .30210 1.2028 122.7 20.1 1.13   6
2024 08 18 05  01 36 47.514   -00 57 52.60  .30193 1.2027 122.8 20.1 1.16   6
2024 08 18 06  01 36 57.976   -01 02 44.81  .30176 1.2026 122.8 20.1 1.20   5
2024 08 18 07  01 37 08.443   -01 07 37.38  .30158 1.2026 122.8 20.1 1.24   5
2024 08 18 08  01 37 18.915   -01 12 30.31  .30141 1.2025 122.8 20.1 1.28   5
2024 08 18 09  01 37 29.392   -01 17 23.61  .30124 1.2024 122.8 20.1 1.31   5
2024 08 18 10  01 37 39.875   -01 22 17.26  .30107 1.2024 122.9 20.0 1.35   4
2024 08 18 11  01 37 50.362   -01 27 11.27  .30090 1.2023 122.9 20.0 1.39   4
2024 08 18 12  01 38 00.855   -01 32 05.63  .30073 1.2022 122.9 20.0 1.43   4
2024 08 18 13  01 38 11.353   -01 37 00.35  .30056 1.2022 122.9 20.0 1.48   4
2024 08 18 14  01 38 21.856   -01 41 55.43  .30040 1.2021 122.9 20.0 1.52   4
2024 08 18 15  01 38 32.365   -01 46 50.85  .30023 1.2021 122.9 20.0 1.56   3
2024 08 18 16  01 38 42.878   -01 51 46.63  .30006 1.2020 123.0 20.0 1.60   3
2024 08 18 17  01 38 53.397   -01 56 42.76  .29990 1.2019 123.0 20.0 1.65   3
2024 08 18 18  01 39 03.920   -02 01 39.23  .29974 1.2019 123.0 20.0 1.69   3
2024 08 18 19  01 39 14.449   -02 06 36.06  .29957 1.2018 123.0 20.0 1.73   3
2024 08 18 20  01 39 24.983   -02 11 33.22  .29941 1.2017 123.0 20.0 1.78   2
2024 08 18 21  01 39 35.522   -02 16 30.74  .29925 1.2017 123.0 20.0 1.83   2
2024 08 18 22  01 39 46.067   -02 21 28.59  .29909 1.2016 123.1 20.0 1.87   2
2024 08 18 23  01 39 56.616   -02 26 26.79  .29893 1.2016 123.1 20.0 1.92   2
2024 08 19 00  01 40 07.170   -02 31 25.32  .29877 1.2015 123.1 20.0 1.97   2